Tracking 19246 objects as of 21-Sep-2018
HD Live streaming from Space Station
objects crossing your sky now

FENGYUN 1C DEB

Track FENGYUN 1C DEB now!
10-day predictions


NORAD ID: 37060
Int'l Code: 1999-025EEU
Perigee: 849.0 km
Apogee: 969.3 km
Inclination: 99.3 °
Period: 103.0 minutes
Semi major axis: 7280 km
RCS: 0.0093 m2 (small)
Launch date: May 10, 1999
Source: People's Republic of China (PRC)
Launch site: Taiyaun Space Center, China (TSC)

Note: This is SATELLITE DEBRIS
aabbcc
Your satellite tracking list
Your tracking list is empty




NASA's NSSDC Master Catalog

Two Line Element Set (TLE):
1 37060U 99025EEU 18260.32773198 -.00000045 +00000-0 +10096-5 0  9999
2 37060 099.3303 259.1367 0082632 024.7009 335.8075 13.97634100550826
Source of the keplerian elements: AFSPC